Total_Precipitation_Accumulation
0.00 0.01 0.01 0.01 0.01 0.01 0.02 0.03 0.03 0.03 0.04 0.04 0.06 0.02 0.01 0.02 0.01 0.02 0.07 0.07 0.09 0.15 0.13 0.08 0.18 0.09 0.02 0.11 0.05 0.01 0.01 0.04 0.12 0.15 0.01 0.00 0.00 0.00 0.00 0.00 0.00 0.00 0.00 0.00 0.00 0.00 0.00
0.01 0.02 0.02 0.01 0.01 0.02 0.03 0.03 0.04 0.04 0.05 0.07 0.03 0.02 0.01 0.01 0.03 0.02 0.04 0.06 0.09 0.12 0.13 0.15 0.21 0.16 0.01 0.05 0.01 0.00 0.01 0.04 0.10 0.19 0.07 0.01 0.00 0.00 0.00 0.00 0.00 0.00 0.00 0.00 0.00 0.00 0.00
0.02 0.02 0.02 0.01 0.03 0.04 0.04 0.05 0.06 0.06 0.08 0.04 0.04 0.02 0.01 0.02 0.04 0.02 0.02 0.07 0.12 0.16 0.15 0.18 0.39 0.16 0.00 0.00 0.00 0.00 0.02 0.03 0.05 0.17 0.18 0.04 0.00 0.00 0.00 0.00 0.00 0.00 0.00 0.00 0.00 0.00 0.00
0.02 0.02 0.02 0.02 0.04 0.04 0.05 0.07 0.08 0.08 0.05 0.05 0.05 0.05 0.01 0.03 0.01 0.03 0.03 0.06 0.10 0.16 0.20 0.23 0.41 0.18 0.01 0.00 0.00 0.00 0.00 0.00 0.00 0.07 0.27 0.19 0.03 0.01 0.00 0.00 0.00 0.00 0.00 0.00 0.00 0.00 0.00
0.02 0.02 0.02 0.04 0.05 0.06 0.07 0.09 0.09 0.05 0.05 0.09 0.06 0.06 0.04 0.02 0.01 0.05 0.08 0.08 0.20 0.18 0.28 0.36 0.43 0.11 0.00 0.00 0.00 0.00 0.00 0.01 0.04 0.12 0.32 0.12 0.13 0.03 0.00 0.00 0.00 0.00 0.00 0.00 0.00 0.00 0.00
0.02 0.01 0.03 0.05 0.05 0.07 0.08 0.10 0.07 0.05 0.09 0.07 0.04 0.06 0.06 0.06 0.03 0.06 0.15 0.17 0.39 0.39 0.44 0.63 0.50 0.14 0.00 0.00 0.00 0.00 0.01 0.01 0.06 0.16 0.21 0.14 0.27 0.13 0.02 0.00 0.00 0.00 0.00 0.00 0.00 0.00 0.00
0.02 0.02 0.04 0.05 0.06 0.07 0.10 0.08 0.08 0.07 0.11 0.05 0.07 0.06 0.07 0.07 0.07 0.11 0.23 0.47 0.69 0.74 0.72 0.59 0.28 0.04 0.00 0.00 0.00 0.00 0.00 0.02 0.09 0.09 0.05 0.08 0.11 0.12 0.05 0.01 0.00 0.00 0.00 0.00 0.00 0.00 0.00
0.02 0.02 0.04 0.06 0.07 0.08 0.09 0.06 0.09 0.08 0.09 0.06 0.08 0.07 0.08 0.07 0.03 0.04 0.20 0.59 0.55 0.47 0.62 0.33 0.12 0.01 0.00 0.00 0.00 0.00 0.00 0.01 0.04 0.02 0.00 0.02 0.04 0.01 0.02 0.00 0.00 0.00 0.00 0.00 0.00 0.00 0.00
0.01 0.02 0.05 0.06 0.07 0.09 0.07 0.08 0.09 0.08 0.08 0.05 0.06 0.03 0.06 0.07 0.02 0.05 0.08 0.31 0.54 0.43 0.62 0.44 0.21 0.02 0.00 0.00 0.00 0.00 0.00 0.00 0.01 0.01 0.00 0.00 0.00 0.00 0.00 0.00 0.00 0.00 0.00 0.00 0.00 0.00 0.00
0.02 0.03 0.05 0.07 0.07 0.08 0.07 0.08 0.07 0.08 0.06 0.07 0.05 0.03 0.10 0.13 0.09 0.11 0.09 0.23 0.67 0.58 0.67 0.54 0.32 0.05 0.00 0.00 0.00 0.00 0.00 0.00 0.00 0.01 0.00 0.00 0.00 0.00 0.00 0.00 0.00 0.00 0.00 0.00 0.00 0.00 0.00
0.02 0.04 0.06 0.06 0.06 0.08 0.08 0.08 0.06 0.04 0.03 0.03 0.04 0.11 0.16 0.31 0.32 0.18 0.19 0.70 0.93 0.78 0.87 0.42 0.23 0.04 0.00 0.00 0.00 0.01 0.00 0.00 0.00 0.00 0.00 0.00 0.00 0.00 0.00 0.00 0.00 0.00 0.00 0.00 0.00 0.00 0.00
0.02 0.05 0.05 0.05 0.07 0.07 0.07 0.08 0.04 0.01 0.03 0.04 0.10 0.20 0.36 0.39 0.34 0.20 0.09 0.76 1.22 0.91 0.78 0.45 0.10 0.02 0.02 0.01 0.00 0.01 0.00 0.00 0.00 0.00 0.00 0.00 0.00 0.00 0.00 0.00 0.00 0.00 0.00 0.00 0.00 0.00 0.01
0.02 0.05 0.05 0.05 0.06 0.07 0.06 0.06 0.02 0.01 0.05 0.07 0.18 0.39 0.35 0.21 0.10 0.04 0.16 0.55 1.05 0.68 0.32 0.13 0.03 0.03 0.01 0.01 0.01 0.01 0.01 0.01 0.00 0.01 0.03 0.00 0.00 0.00 0.00 0.00 0.00 0.00 0.00 0.00 0.00 0.02 0.00
0.03 0.05 0.04 0.06 0.05 0.05 0.05 0.05 0.01 0.03 0.07 0.09 0.27 0.21 0.13 0.07 0.04 0.12 0.16 0.32 0.73 0.42 0.10 0.03 0.01 0.02 0.01 0.01 0.02 0.01 0.01 0.01 0.00 0.00 0.00 0.00 0.00 0.00 0.00 0.00 0.00 0.00 0.00 0.00 0.00 0.00 0.00
0.02 0.04 0.04 0.05 0.04 0.04 0.05 0.03 0.01 0.05 0.08 0.10 0.18 0.07 0.10 0.13 0.08 0.06 0.12 0.34 0.72 0.31 0.03 0.02 0.04 0.02 0.03 0.00 0.01 0.01 0.01 0.00 0.00 0.00 0.00 0.00 0.00 0.00 0.00 0.00 0.00 0.00 0.00 0.00 0.01 0.00 0.00
0.02 0.03 0.04 0.04 0.05 0.03 0.03 0.01 0.01 0.08 0.11 0.11 0.12 0.06 0.18 0.18 0.05 0.06 0.15 0.42 0.45 0.05 0.00 0.00 0.04 0.01 0.01 0.01 0.01 0.01 0.00 0.00 0.00 0.00 0.00 0.00 0.00 0.00 0.00 0.00 0.00 0.00 0.00 0.01 0.03 0.01 0.00
0.03 0.03 0.03 0.03 0.04 0.01 0.02 0.00 0.01 0.08 0.12 0.07 0.08 0.18 0.25 0.08 0.03 0.04 0.23 0.64 0.30 0.01 0.00 0.00 0.00 0.00 0.00 0.00 0.00 0.00 0.00 0.00 0.00 0.00 0.00 0.00 0.00 0.00 0.00 0.00 0.00 0.00 0.00 0.01 0.02 0.01 0.02
0.02 0.03 0.03 0.03 0.03 0.01 0.01 0.00 0.00 0.10 0.11 0.05 0.10 0.24 0.09 0.02 0.03 0.07 0.33 0.42 0.14 0.02 0.01 0.00 0.00 0.00 0.00 0.00 0.00 0.00 0.00 0.00 0.00 0.00 0.00 0.00 0.00 0.00 0.00 0.00 0.00 0.00 0.00 0.01 0.07 0.02 0.06
0.02 0.02 0.02 0.02 0.02 0.01 0.01 0.00 0.00 0.06 0.10 0.07 0.09 0.13 0.12 0.07 0.05 0.07 0.19 0.04 0.01 0.03 0.01 0.00 0.00 0.00 0.00 0.00 0.00 0.00 0.00 0.00 0.00 0.00 0.00 0.00 0.01 0.00 0.00 0.01 0.01 0.00 0.00 0.00 0.04 0.19 0.14
0.01 0.01 0.01 0.02 0.02 0.01 0.01 0.00 0.00 0.01 0.06 0.10 0.05 0.08 0.06 0.01 0.02 0.05 0.12 0.06 0.02 0.03 0.00 0.00 0.00 0.00 0.00 0.00 0.00 0.00 0.00 0.00 0.00 0.00 0.00 0.00 0.00 0.00 0.00 0.00 0.01 0.02 0.00 0.02 0.16 0.31 0.06
0.01 0.01 0.01 0.01 0.02 0.00 0.01 0.00 0.00 0.00 0.01 0.01 0.02 0.01 0.01 0.01 0.01 0.03 0.03 0.04 0.01 0.00 0.00 0.00 0.00 0.00 0.00 0.00 0.00 0.00 0.00 0.00 0.00 0.00 0.00 0.00 0.01 0.00 0.00 0.00 0.00 0.00 0.00 0.01 0.18 0.11 0.19
0.01 0.01 0.00 0.01 0.01 0.00 0.01 0.00 0.00 0.00 0.00 0.00 0.00 0.01 0.01 0.00 0.00 0.00 0.00 0.01 0.01 0.00 0.00 0.00 0.00 0.00 0.00 0.00 0.00 0.00 0.00 0.00 0.00 0.00 0.00 0.00 0.01 0.00 0.00 0.00 0.00 0.00 0.00 0.02 0.02 0.01 0.02
0.01 0.01 0.01 0.00 0.00 0.00 0.01 0.00 0.00 0.00 0.00 0.01 0.01 0.00 0.01 0.01 0.00 0.00 0.00 0.00 0.00 0.00 0.00 0.00 0.00 0.00 0.00 0.00 0.00 0.00 0.00 0.00 0.00 0.00 0.00 0.01 0.00 0.01 0.01 0.00 0.00 0.02 0.02 0.01 0.01 0.00 0.01
0.01 0.01 0.01 0.00 0.01 0.00 0.00 0.00 0.00 0.00 0.01 0.01 0.02 0.02 0.01 0.00 0.00 0.00 0.00 0.00 0.00 0.00 0.00 0.00 0.00 0.01 0.00 0.00 0.00 0.00 0.00 0.00 0.00 0.00 0.00 0.00 0.01 0.03 0.02 0.01 0.03 0.02 0.00 0.00 0.00 0.00 0.00
0.01 0.01 0.01 0.00 0.01 0.00 0.00 0.00 0.00 0.00 0.00 0.01 0.03 0.03 0.02 0.01 0.00 0.00 0.00 0.00 0.00 0.00 0.00 0.00 0.00 0.00 0.00 0.00 0.00 0.00 0.00 0.00 0.00 0.00 0.01 0.00 0.02 0.05 0.05 0.04 0.01 0.01 0.00 0.02 0.00 0.00 0.00
0.01 0.01 0.01 0.00 0.01 0.01 0.01 0.00 0.00 0.00 0.00 0.00 0.03 0.02 0.02 0.02 0.00 0.00 0.00 0.00 0.00 0.00 0.00 0.00 0.00 0.00 0.00 0.01 0.02 0.00 0.01 0.01 0.00 0.00 0.00 0.01 0.02 0.07 0.07 0.10 0.02 0.01 0.00 0.00 0.00 0.00 0.00
0.01 0.02 0.01 0.00 0.00 0.01 0.00 0.00 0.00 0.00 0.00 0.00 0.01 0.01 0.01 0.02 0.00 0.00 0.00 0.00 0.00 0.00 0.01 0.00 0.00 0.00 0.00 0.02 0.02 0.01 0.01 0.00 0.00 0.00 0.01 0.02 0.06 0.08 0.08 0.10 0.01 0.00 0.00 0.00 0.00 0.00 0.00
0.02 0.02 0.01 0.01 0.00 0.00 0.00 0.00 0.00 0.01 0.00 0.00 0.00 0.01 0.01 0.02 0.00 0.00 0.00 0.00 0.00 0.00 0.01 0.00 0.00 0.00 0.01 0.03 0.02 0.01 0.02 0.01 0.00 0.00 0.00 0.00 0.01 0.02 0.03 0.03 0.00 0.00 0.00 0.00 0.00 0.00 0.00
0.03 0.02 0.01 0.01 0.01 0.01 0.00 0.01 0.00 0.00 0.00 0.00 0.00 0.00 0.01 0.04 0.01 0.00 0.00 0.00 0.00 0.00 0.02 0.00 0.01 0.00 0.00 0.01 0.02 0.03 0.02 0.00 0.00 0.00 0.00 0.00 0.00 0.00 0.00 0.00 0.00 0.00 0.00 0.00 0.00 0.00 0.00